TimeCDT,TemperatureF,Dew PointF,Humidity,Sea Level PressureIn,VisibilityMPH,Wind Direction,Wind SpeedMPH,Gust SpeedMPH,PrecipitationIn,Events,Conditions,WindDirDegrees,DateUTC
12:15 AM,38.5,35.1,87,30.12,7.0,Calm,Calm,-,N/A,,Clear,0,2013-04-06 05:15:00
12:35 AM,38.3,34.9,87,30.12,7.0,Calm,Calm,-,N/A,,Clear,0,2013-04-06 05:35:00
12:55 AM,37.6,34.3,88,30.12,7.0,Calm,Calm,-,N/A,,Clear,0,2013-04-06 05:55:00
1:15 AM,36.7,34.3,91,30.13,7.0,Calm,Calm,-,N/A,,Clear,0,2013-04-06 06:15:00
1:35 AM,37.0,34.0,89,30.13,7.0,Calm,Calm,-,N/A,,Clear,0,2013-04-06 06:35:00
1:55 AM,36.0,34.0,93,30.13,7.0,Calm,Calm,-,N/A,,Clear,0,2013-04-06 06:55:00
2:15 AM,35.8,33.8,92,30.13,7.0,Calm,Calm,-,N/A,,Clear,0,2013-04-06 07:15:00
2:35 AM,35.6,33.4,92,30.12,7.0,Calm,Calm,-,N/A,,Clear,0,2013-04-06 07:35:00
2:55 AM,34.9,33.3,94,30.12,7.0,Calm,Calm,-,N/A,,Clear,0,2013-04-06 07:55:00
3:15 AM,34.7,33.1,94,30.13,7.0,Calm,Calm,-,N/A,,Clear,0,2013-04-06 08:15:00
3:35 AM,33.8,32.2,94,30.13,7.0,Calm,Calm,-,N/A,,Clear,0,2013-04-06 08:35:00
3:55 AM,33.8,32.7,96,30.14,7.0,Calm,Calm,-,N/A,,Clear,0,2013-04-06 08:55:00
4:15 AM,33.8,32.4,94,30.14,7.0,Calm,Calm,-,N/A,,Clear,0,2013-04-06 09:15:00
4:35 AM,33.4,32.2,95,30.14,7.0,Calm,Calm,-,N/A,,Clear,0,2013-04-06 09:35:00
4:55 AM,32.7,32.0,97,30.15,7.0,Calm,Calm,-,N/A,,Clear,0,2013-04-06 09:55:00
5:15 AM,32.7,31.8,96,30.16,7.0,Calm,Calm,-,N/A,,Clear,0,2013-04-06 10:15:00
5:35 AM,32.2,31.8,99,30.17,5.0,Calm,Calm,-,N/A,,Clear,0,2013-04-06 10:35:00
5:55 AM,32.0,31.1,96,30.17,7.0,Calm,Calm,-,N/A,,Clear,0,2013-04-06 10:55:00
6:15 AM,32.0,31.8,99,30.18,4.0,Calm,Calm,-,N/A,,Clear,0,2013-04-06 11:15:00
6:35 AM,32.0,31.1,96,30.20,5.0,Calm,Calm,-,N/A,,Clear,0,2013-04-06 11:35:00
6:55 AM,32.0,31.8,99,30.20,5.0,Calm,Calm,-,N/A,,Clear,0,2013-04-06 11:55:00
7:15 AM,33.4,32.0,94,30.21,7.0,Calm,Calm,-,N/A,,Clear,0,2013-04-06 12:15:00
7:35 AM,34.9,33.1,93,30.21,7.0,Calm,Calm,-,N/A,,Clear,0,2013-04-06 12:35:00
7:55 AM,36.5,34.2,91,30.21,10.0,Calm,Calm,-,N/A,,Clear,0,2013-04-06 12:55:00
8:15 AM,38.7,34.7,86,30.21,10.0,Calm,Calm,-,N/A,,Clear,0,2013-04-06 13:15:00
8:35 AM,41.5,36.0,81,30.21,10.0,Calm,Calm,-,N/A,,Clear,0,2013-04-06 13:35:00
8:55 AM,43.5,35.8,74,30.21,10.0,Calm,Calm,-,N/A,,Clear,0,2013-04-06 13:55:00
9:15 AM,46.0,35.8,67,30.21,10.0,Calm,Calm,-,N/A,,Clear,0,2013-04-06 14:15:00
9:35 AM,48.9,36.5,62,30.20,10.0,Calm,Calm,-,N/A,,Clear,0,2013-04-06 14:35:00
9:55 AM,53.1,37.2,55,30.20,10.0,Calm,Calm,-,N/A,,Clear,0,2013-04-06 14:55:00
10:15 AM,56.7,36.3,47,30.20,10.0,Calm,Calm,-,N/A,,Clear,0,2013-04-06 15:15:00
10:35 AM,59.5,34.3,39,30.19,10.0,Calm,Calm,-,N/A,,Clear,0,2013-04-06 15:35:00
10:55 AM,61.5,32.4,33,30.18,10.0,SSW,6.9,-,N/A,,Clear,200,2013-04-06 15:55:00
11:15 AM,63.5,33.8,33,30.18,10.0,SSE,5.8,-,N/A,,Clear,150,2013-04-06 16:15:00
11:35 AM,63.0,32.9,32,30.17,10.0,SSE,4.6,-,N/A,,Clear,160,2013-04-06 16:35:00
11:55 AM,64.6,33.3,31,30.17,10.0,WSW,5.8,-,N/A,,Clear,240,2013-04-06 16:55:00
12:15 PM,65.1,32.7,30,30.16,10.0,South,5.8,-,N/A,,Clear,170,2013-04-06 17:15:00
12:35 PM,66.6,32.0,28,30.14,10.0,SW,8.1,-,N/A,,Clear,220,2013-04-06 17:35:00
12:55 PM,66.2,29.8,26,30.14,10.0,SSW,8.1,-,N/A,,Clear,210,2013-04-06 17:55:00
1:15 PM,66.7,29.8,25,30.13,10.0,SSW,8.1,-,N/A,,Clear,210,2013-04-06 18:15:00
1:35 PM,68.2,31.8,26,30.12,10.0,South,6.9,-,N/A,,Clear,170,2013-04-06 18:35:00
1:55 PM,68.5,32.2,26,30.11,10.0,SW,3.5,-,N/A,,Clear,220,2013-04-06 18:55:00
2:15 PM,69.3,32.0,25,30.10,10.0,South,8.1,-,N/A,,Clear,180,2013-04-06 19:15:00
2:35 PM,68.7,30.6,24,30.09,10.0,SW,5.8,-,N/A,,Clear,220,2013-04-06 19:35:00
2:55 PM,68.4,28.9,23,30.09,10.0,South,3.5,-,N/A,,Clear,180,2013-04-06 19:55:00
3:15 PM,68.5,28.8,23,30.08,10.0,SSW,8.1,-,N/A,,Clear,200,2013-04-06 20:15:00
3:35 PM,68.4,28.8,23,30.07,10.0,South,10.4,17.3,N/A,,Clear,170,2013-04-06 20:35:00
3:55 PM,69.1,28.4,22,30.07,10.0,SSW,5.8,-,N/A,,Clear,210,2013-04-06 20:55:00
4:15 PM,68.4,29.7,24,30.07,10.0,South,5.8,-,N/A,,Clear,180,2013-04-06 21:15:00
4:35 PM,68.5,31.8,26,30.07,10.0,South,8.1,-,N/A,,Clear,170,2013-04-06 21:35:00
4:55 PM,68.4,33.8,28,30.07,10.0,South,10.4,16.1,N/A,,Clear,190,2013-04-06 21:55:00
5:15 PM,68.0,34.9,29,30.07,10.0,South,9.2,-,N/A,,Clear,170,2013-04-06 22:15:00
5:35 PM,68.0,35.8,31,30.06,10.0,SSW,5.8,-,N/A,,Clear,200,2013-04-06 22:35:00
5:55 PM,67.1,36.0,32,30.06,10.0,South,4.6,-,N/A,,Clear,170,2013-04-06 22:55:00
6:15 PM,66.7,35.1,31,30.07,10.0,SSW,4.6,-,N/A,,Clear,200,2013-04-06 23:15:00
6:35 PM,66.0,35.8,33,30.07,10.0,South,3.5,-,N/A,,Clear,190,2013-04-06 23:35:00
6:55 PM,65.1,36.7,35,30.06,10.0,South,3.5,-,N/A,,Clear,170,2013-04-06 23:55:00
7:15 PM,63.5,36.7,37,30.06,10.0,South,3.5,-,N/A,,Clear,180,2013-04-07 00:15:00
7:35 PM,61.0,39.2,45,30.06,10.0,Calm,Calm,-,N/A,,Clear,0,2013-04-07 00:35:00
7:55 PM,57.6,42.8,58,30.05,10.0,Calm,Calm,-,N/A,,Clear,0,2013-04-07 00:55:00
8:15 PM,56.1,41.9,59,30.05,10.0,Calm,Calm,-,N/A,,Clear,0,2013-04-07 01:15:00
8:35 PM,54.9,42.3,63,30.06,10.0,Calm,Calm,-,N/A,,Clear,0,2013-04-07 01:35:00
8:55 PM,54.5,42.4,64,30.06,10.0,Calm,Calm,-,N/A,,Clear,0,2013-04-07 01:55:00
9:15 PM,52.3,43.2,71,30.08,10.0,Calm,Calm,-,N/A,,Clear,0,2013-04-07 02:15:00
9:35 PM,55.2,41.4,60,30.07,10.0,South,3.5,-,N/A,,Clear,170,2013-04-07 02:35:00
9:55 PM,51.1,41.7,70,30.07,10.0,Calm,Calm,-,N/A,,Clear,0,2013-04-07 02:55:00
10:15 PM,57.0,39.4,52,30.07,10.0,South,3.5,-,N/A,,Clear,190,2013-04-07 03:15:00
10:35 PM,56.1,38.8,52,30.08,10.0,South,4.6,-,N/A,,Clear,190,2013-04-07 03:35:00
10:55 PM,59.2,36.7,43,30.08,10.0,South,4.6,-,N/A,,Clear,170,2013-04-07 03:55:00
11:15 PM,59.0,36.5,43,30.08,10.0,South,4.6,-,N/A,,Clear,180,2013-04-07 04:15:00
11:35 PM,58.8,36.5,43,30.09,10.0,South,3.5,-,N/A,,Clear,190,2013-04-07 04:35:00
11:55 PM,58.1,36.3,44,30.09,10.0,SSE,4.6,-,N/A,,Clear,160,2013-04-07 04:55:00